Home   Weather   Koszalin   Past weeks

Flag for Poland Past Weather in Koszalin, Poland — Yesterday and Last 2 Weeks

Now
48 °F

Scattered clouds.


Feels Like: 46 °F
Forecast: 37 / 52 °F
Wind: 5 mph from Northwest

Location: Koszalin

Current Time: Apr 27, 2017 at 3:20:38 pm

Latest Report: Apr 27, 2017 at 2:00 pm


Visibility: 19 mi

Pressure: 29.95 "Hg

Humidity: 56%

Dew Point: 33 °F

Location of KoszalinLocation

Past Weather in Koszalin — Graph

°F

Koszalin Temperature Yesterday

Maximum temperature yesterday: 47 °F (at 7:00 pm)
Minimum temperature yesterday: 33 °F (at 6:00 am)
Average temperature yesterday: 41 °F

High & Low Weather Summary for the Past Weeks

 TemperatureHumidityPressure
High53 °F (Apr 21, 3:00 pm)95% (Apr 12, 1:00 pm)30.58 "Hg (Apr 12, 1:00 pm)
Low27 °F (Apr 20, 3:00 am)46% (Apr 19, 5:00 pm)29.58 "Hg (Apr 25, 10:00 am)
Average41 °F75%29.96 "Hg
* Reported Apr 12 1:00 pm — Apr 27 1:00 pm, Koszalin, Weather by CustomWeather, © 2017

Note: Actual official high and low records may vary slightly from our data, if they occured in-between our weather recording intervals... More about our weather records

Advertising

Koszalin Weather History for the Previous 24 Hours

Scroll right to see more
 ConditionsComfort  
Time TempWeatherWind HumidityBarometerVisibility
1:00 pm
Thu, Apr 27
47 °FScattered clouds.3 mph53%29.94 "Hg22 mi
12:00 pm46 °FPartly sunny.5 mph62%29.95 "Hg19 mi
11:00 am45 °FPartly sunny.5 mph64%29.94 "Hg25 mi
10:00 am46 °FScattered clouds.3 mph61%29.93 "Hg22 mi
9:00 am43 °FScattered clouds.2 mph78%29.92 "Hg11 mi
8:00 am39 °FPassing clouds.2 mph83%29.92 "Hg9 mi
7:00 am36 °FScattered clouds.1 mph89%29.90 "Hg8 mi
6:00 am34 °FPartly sunny.1 mph92%29.90 "Hg9 mi
5:00 am33 °FPassing clouds.2 mph94%29.90 "Hg7 mi
4:00 am34 °FPassing clouds.2 mph93%29.90 "Hg6 mi
3:00 am35 °FClear.1 mph93%29.90 "Hg7 mi
2:00 am36 °FClear.2 mph92%29.90 "Hg8 mi
1:00 am37 °FClear.1 mph89%29.91 "Hg7 mi
12:00 am37 °FClear.1 mph86%29.92 "Hg8 mi
11:00 pm
Wed, Apr 26
40 °FPassing clouds.2 mph84%29.91 "Hg7 mi
10:00 pm40 °FPassing clouds.2 mph83%29.91 "Hg8 mi
9:00 pm41 °FPassing clouds.No wind62%29.90 "Hg25 mi
8:00 pm45 °FPassing clouds.2 mph54%29.88 "Hg28 mi
7:00 pm47 °FScattered clouds.2 mph50%29.88 "Hg25 mi
6:00 pm46 °FScattered clouds.2 mph55%29.88 "Hg22 mi
5:00 pm46 °FPartly sunny.3 mph56%29.88 "Hg22 mi
4:00 pm46 °FScattered clouds.6 mph61%29.88 "Hg22 mi
3:00 pm46 °FPartly sunny.7 mph67%29.87 "Hg19 mi
Weather by CustomWeather, © 2017

See weather overviewHow to use our weather pages